Starlink 3614

operational
NORAD ID: 51771 Int'l Des: 2022-017 Owner: SPXS Country: US Constellation: starlink
LEOCIRCULAR

Über Starlink 3614

Beschreibung wird geladen...

Live-Position

3D-Globus wird geladen...

Nächste Überflüge

Höhenverlauf

Altitude vs Time

uPlot chart will show altitude changes over time

Zweizeiliger Elementsatz

1 51771U 22017D 25307.95239087 .00000235 00000-0 32855-4 0 9990
2 51771 53.2174 183.5663 0002068 94.0013 266.1216 15.08842237203627
Epoch: 3. Nov. 2025 • Age: 12 hours

Aktueller Status

Höhe 559.0 km
Geschwindigkeit 7.58 km/s
Subsatellitenpunkt -51.61°S, 139.72°W
Startdatum 25. Feb. 2022
Alter 3.6 years
Typ internet

Technische Details

Klassifizierung Payload
Masse 297.00 kg
Trockenmasse 275.00 kg
Gesamtmasse 297.00 kg
Länge 0.20 m
Durchmesser 2.80 m
Spannweite 9.00 m
Form Box + pan
Hersteller SPXS
Bus-Typ Starlink
Phasenstatus In Orbit
Besitzer/Staat SPXS/US

Große Konstellationen

Loading constellations...